Location: Ladrillo (historical)
(32.8195°N, 117.2231°W)
Time: 16:38:45
(UTC+00:00)

Tiros 1 despin weight - All Passes

Search period start: 27 February 2021 00:00
Search period end: 09 March 2021 00:00
Orbit: 593 x 642 km, 48.2° (Epoch: 26 February)

Date Brightness Start Highest point End Pass type
(mag) Time Alt. Az. Time Alt. Az. Time Alt. Az.
27 Feb - 07:12:52 10° SSW 07:16:49 30° SE 07:20:50 10° ENE night (unlit)
27 Feb - 08:53:53 10° WSW 08:58:15 42° NNW 09:02:41 10° NE night (unlit)
27 Feb - 10:38:08 10° NW 10:40:47 15° NNW 10:43:26 10° NNE visible
27 Feb - 12:21:56 10° NNW 12:23:58 13° N 12:26:00 10° NNE visible
27 Feb - 14:02:46 10° NNW 14:06:48 27° NNE 14:10:48 10° E daylight
27 Feb - 15:43:59 10° WNW 15:48:36 59° SW 15:53:11 10° SE daylight
28 Feb - 07:28:32 10° SW 07:33:01 65° SE 07:37:36 10° ENE night (unlit)
28 Feb - 09:11:02 10° W 09:14:53 25° NNW 09:18:46 10° NNE night (unlit)
28 Feb - 10:55:50 10° NNW 10:57:45 12° N 10:59:41 10° NNE visible
28 Feb - 12:38:08 10° NNW 12:40:56 15° NNE 12:43:44 10° NE visible
28 Feb - 14:18:52 10° NW 14:23:24 46° NE 14:27:54 10° ESE daylight
28 Feb - 16:00:49 10° WNW 16:04:48 28° SW 16:08:45 10° S daylight
01 Mar - 06:05:01 10° S 06:08:12 19° SE 06:11:25 10° E night (unlit)
01 Mar - 07:44:52 10° WSW 07:49:23 62° NW 07:53:59 10° NE night (unlit)
01 Mar - 09:28:34 10° WNW 09:31:40 17° NNW 09:34:47 10° NNE night (unlit)
01 Mar - 11:13:02 10° NNW 11:14:47 12° N 11:16:31 10° NNE visible
01 Mar - 12:54:10 10° NNW 12:57:47 21° NNE 13:01:23 10° ENE visible
01 Mar - 14:35:07 10° NW 14:39:50 89° NE 14:44:31 10° SE daylight
01 Mar - 16:18:49 10° WSW 16:20:51 13° SW 16:22:53 10° SSW daylight
02 Mar - 06:20:05 10° SSW 06:24:19 41° SE 06:28:37 10° ENE night (unlit)
02 Mar - 08:01:45 10° W 08:05:54 34° NNW 08:10:08 10° NE night (unlit)
02 Mar - 09:46:18 10° NW 09:48:35 13° N 09:50:52 10° NNE night (unlit)
02 Mar - 11:29:29 10° NNW 11:31:47 13° N 11:34:05 10° NE visible
02 Mar - 13:10:13 10° NW 13:14:28 33° NNE 13:18:43 10° E visible
02 Mar - 14:51:40 10° WNW 14:56:06 43° SW 15:00:32 10° SSE daylight
03 Mar - 04:58:08 10° SSE 04:59:37 11° SE 05:01:06 10° ESE night (unlit)
03 Mar - 06:36:03 10° SW 06:40:34 88° SE 06:45:11 10° NE night (unlit)
03 Mar - 08:19:04 10° WNW 08:22:36 21° NNW 08:26:10 10° NNE night (unlit)
03 Mar - 10:03:52 10° NNW 10:05:35 12° N 10:07:18 10° NNE night (unlit)
03 Mar - 11:45:34 10° NNW 11:48:42 17° NNE 11:51:50 10° ENE visible
03 Mar - 13:26:22 10° NW 13:31:00 60° NE 13:35:37 10° ESE visible
03 Mar - 15:08:47 10° W 15:12:14 20° SW 15:15:41 10° S daylight
04 Mar - 05:11:57 10° S 05:15:39 26° SE 05:19:25 10° ENE night (unlit)
04 Mar - 06:52:37 10° WSW 06:57:00 47° NW 07:01:27 10° NE night (unlit)
04 Mar - 08:36:43 10° NW 08:39:27 15° NNW 08:42:11 10° NNE night (unlit)
04 Mar - 10:20:44 10° NNW 10:22:36 12° N 10:24:29 10° NNE visible
04 Mar - 12:01:36 10° NNW 12:05:29 25° NNE 12:09:22 10° E visible
04 Mar - 13:42:42 10° NW 13:47:22 68° SW 13:52:00 10° SE visible
05 Mar - 05:27:26 10° SW 05:31:49 56° SE 05:36:18 10° ENE night (unlit)
05 Mar - 07:09:41 10° W 07:13:35 27° NNW 07:17:32 10° NNE night (unlit)
05 Mar - 08:54:27 10° NNW 08:56:24 12° N 08:58:21 10° NNE night (unlit)
05 Mar - 10:36:59 10° NNW 10:39:34 15° NNE 10:42:11 10° NE visible
05 Mar - 12:17:40 10° NW 12:22:06 41° NNE 12:26:33 10° ESE visible
05 Mar - 13:59:25 10° WNW 14:03:35 32° SW 14:07:43 10° SSE daylight
06 Mar - 04:04:17 10° SSE 04:07:02 16° SE 04:09:49 10° E night (unlit)
06 Mar - 05:43:40 10° WSW 05:48:08 70° NW 05:52:43 10° NE night (unlit)
06 Mar - 07:27:10 10° WNW 07:30:20 18° NNW 07:33:33 10° NNE night (unlit)
06 Mar - 09:11:47 10° NNW 09:13:25 12° N 09:15:02 10° NNE night (unlit)
06 Mar - 10:53:00 10° NNW 10:56:26 20° NNE 10:59:53 10° ENE visible
06 Mar - 12:33:52 10° NW 12:38:34 79° NE 12:43:15 10° SE visible
06 Mar - 14:17:02 10° W 14:19:39 15° SW 14:22:17 10° SSW daylight
07 Mar - 04:19:04 10° SSW 04:23:07 35° SE 04:27:15 10° ENE visible
07 Mar - 06:00:27 10° W 06:04:37 37° NNW 06:08:53 10° NE night (unlit)
07 Mar - 07:44:53 10° NW 07:47:14 14° NNW 07:49:35 10° NNE night (unlit)
07 Mar - 09:28:19 10° NNW 09:30:25 13° N 09:32:31 10° NE night (unlit)
07 Mar - 11:09:02 10° NNW 11:13:10 30° NNE 11:17:18 10° E visible
07 Mar - 12:50:20 10° WNW 12:54:52 50° SW 12:59:23 10° SSE visible
08 Mar - 04:34:54 10° SW 04:39:21 77° SE 04:43:54 10° NE visible
08 Mar - 06:17:42 10° WNW 06:21:17 23° NNW 06:24:56 10° NNE night (unlit)
08 Mar - 08:02:33 10° NNW 08:04:13 12° N 08:05:53 10° NNE night (unlit)
08 Mar - 09:44:26 10° NNW 09:47:21 16° NNE 09:50:17 10° ENE night (unlit)
08 Mar - 11:25:08 10° NW 11:29:43 53° NE 11:34:17 10° ESE visible
08 Mar - 13:07:18 10° WNW 13:11:02 23° SW 13:14:44 10° S visible
